Flag for U.S.A. Weather past 2 weeks in Woodstock, New York, U.S.A.

Now
60 °F

Clear.


Feels Like: 60 °F
Forecast: 56 / 78 °F
Wind: No wind

Location: Dutchess County Airport

Current Time: Jun 30, 2015 at 2:00:22 AM

Latest Report: Jun 30, 2015 at 12:53 AM


Visibility: 10 mi

Pressure: 29.93 "Hg

Humidity: 93%

Dew point: 58 °F

Location of WoodstockLocation

Historic Weather in Woodstock — Graph

°F

Woodstock temperature yesterday

Maximum temperature yesterday: 75 °F (at 3:53 PM)
Minimum temperature yesterday: 62 °F (at 3:53 AM)
Average temperature yesterday: 68 °F

Past Weeks' High & Low Weather Summary

 TemperatureHumidityPressure
High87 °F (Jun 21, 4:53 PM)94% (Jun 22, 4:53 AM)30.14 "Hg (Jun 22, 4:53 AM)
Low53 °F (Jun 25, 4:53 AM)32% (Jun 17, 3:53 PM)29.65 "Hg (Jun 21, 3:53 PM)
Average70 °F73%29.92 "Hg
* Reported Jun 15 12:53 AM — Jun 30 12:53 AM, Woodstock, Weather by CustomWeather, © 2015

Note: Actual official high and low records may vary slightly from our data, if they occured in-between our weather recording intervals... More about our weather records

Advertising

Woodstock weather history for previous 24 hours

 ConditionsComfort  
Time TempWeatherWind HumidityBarometerVisibility
12:53 AM
Tue, Jun 30
60 °FClear.No wind93%29.93 "Hg10 mi
11:53 PM
Mon, Jun 29
62 °FClear.No wind86%29.92 "Hg10 mi
10:53 PM64 °FPassing clouds.No wind87%29.92 "Hg10 mi
9:53 PM66 °FPassing clouds.No wind81%29.91 "Hg10 mi
8:53 PM67 °FPartly sunny.No wind76%29.89 "Hg10 mi
7:53 PM74 °FSunny.3 mph56%29.88 "Hg10 mi
6:53 PM75 °FSunny.6 mph54%29.87 "Hg10 mi
5:53 PM75 °FOvercast.9 mph55%29.86 "Hg10 mi
4:53 PM74 °FOvercast.10 mph57%29.86 "Hg10 mi
3:53 PM75 °FMostly cloudy.10 mph54%29.86 "Hg10 mi
2:53 PM74 °FOvercast.10 mph56%29.86 "Hg10 mi
1:53 PM74 °FPartly sunny.8 mph52%29.85 "Hg10 mi
12:53 PM74 °FScattered clouds.12 mph53%29.85 "Hg10 mi
11:53 AM72 °FOvercast.15 mph57%29.85 "Hg10 mi
10:53 AM71 °FPartly sunny.8 mph61%29.85 "Hg10 mi
9:53 AM68 °FMostly cloudy.3 mph65%29.84 "Hg10 mi
8:53 AM68 °FSunny.9 mph68%29.83 "Hg10 mi
7:53 AM64 °FPartly sunny.5 mph75%29.82 "Hg10 mi
6:53 AM62 °FMostly cloudy.8 mph78%29.81 "Hg10 mi
5:53 AM62 °FOvercast.6 mph80%29.78 "Hg10 mi
4:53 AM62 °FOvercast.3 mph80%29.77 "Hg10 mi
3:53 AM62 °FPassing clouds.5 mph86%29.75 "Hg10 mi
2:53 AM63 °FClear.6 mph87%29.73 "Hg10 mi
Weather by CustomWeather, © 2015

See weather overviewHow to use our weather pages